Flag for United Kingdom Weather past 2 weeks in Cambridge, England, United Kingdom

Now
39 °F

Partly sunny.


Feels Like: 30 °F
Forecast: N/A
Wind: 16 mph from North

Location: Cambridge Airport

Current Time: Feb 1, 2015 at 3:28:30 PM

Latest Report: Feb 1, 2015 at 2:50 PM


Visibility: N/A

Pressure: 29.53 "Hg

Humidity: 70%

Dew point: 30 °F

Location of CambridgeLocation

Historic Weather in Cambridge — Graph

°F

Cambridge temperature yesterday

Maximum temperature yesterday: 39 °F (at 2:20 PM)
Minimum temperature yesterday: 34 °F (at 7:20 AM)
Average temperature yesterday: 37 °F

Past Weeks' High & Low Weather Summary

 TemperatureHumidityPressure
High50 °F (Jan 26, 10:20 AM)100% (Jan 18, 8:20 AM)30.42 "Hg (Jan 18, 8:20 AM)
Low23 °F (Jan 23, 7:50 AM)53% (Jan 28, 2:50 PM)28.82 "Hg (Jan 29, 3:20 PM)
Average38 °F83%29.80 "Hg
* Reported Jan 17 2:20 PM — Feb 1 2:20 PM, Cambridge, Weather by CustomWeather, © 2014

Note: Actual official high and low records may vary slightly from our data, if they occured in-between our weather recording intervals... More about our weather records

Advertising

Cambridge weather history for previous 24 hours

 ConditionsComfort  
Time TempWeatherWind HumidityBarometerVisibility
2:20 PM
Feb 1
41 °FPartly sunny.18 mph70%29.53 "HgN/A
1:50 PM41 °FPartly sunny.18 mph70%29.53 "HgN/A
1:20 PM41 °FPartly sunny.14 mph70%29.50 "HgN/A
12:50 PM39 °FPartly sunny.16 mph75%29.50 "HgN/A
12:20 PM39 °FPartly sunny.15 mph81%29.50 "HgN/A
11:50 AM39 °FScattered clouds.16 mph75%29.47 "HgN/A
11:20 AM39 °FScattered clouds.17 mph75%29.47 "HgN/A
10:50 AM39 °FScattered clouds.18 mph75%29.47 "HgN/A
10:20 AM39 °FScattered clouds.18 mph75%29.45 "HgN/A
9:50 AM39 °FScattered clouds.20 mph75%29.42 "HgN/A
9:20 AM37 °FPartly sunny.18 mph81%29.42 "HgN/A
8:50 AM37 °FScattered showers. Partly sunny.16 mph81%29.39 "HgN/A
8:20 AM39 °FPartly sunny.16 mph70%29.39 "HgN/A
7:50 AM39 °FPartly sunny.18 mph70%29.36 "HgN/A
7:20 AM39 °FPassing clouds.20 mph70%29.36 "HgN/A
7:20 PM
Jan 31
39 °FPassing clouds.15 mph65%29.24 "HgN/A
6:50 PM39 °FPassing clouds.14 mph70%29.21 "HgN/A
6:20 PM39 °FPassing clouds.15 mph75%29.21 "HgN/A
5:50 PM39 °FPassing clouds.15 mph75%29.18 "HgN/A
5:20 PM39 °FPassing clouds.13 mph81%29.18 "HgN/A
4:50 PM39 °FPassing clouds.13 mph81%29.15 "HgN/A
4:20 PM39 °FPartly sunny.15 mph81%29.15 "HgN/A
3:20 PM39 °FPartly sunny.17 mph87%29.09 "Hg6 mi
Weather by CustomWeather, © 2014

See weather overviewHow to use our weather pages